{"data":{"norad_id":67086,"epoch":"2026-09-20T22:54:22.435776Z","epoch_age_seconds":39808,"freshness":"FRESH","line1":"1 67086U 25298M   26263.95442634  .00003026  00000+0  26124-3 0  9997","line2":"2 67086  69.9996 242.2191 0003384 270.2580  89.8192 14.98335503 42464","mean_motion":14.98335503,"eccentricity":0.0003384,"inclination_deg":69.9996,"raan_deg":242.2191,"arg_perigee_deg":270.258,"mean_anomaly_deg":89.8192,"bstar":0.00026124,"rev_number":4246,"period_min":96.106646149464,"perigee_km":569.68693390738,"apogee_km":574.39081293851,"semimajor_km":6950.1758734229,"source":"CELESTRAK","updated_at":"2026-09-21T09:00:36.099561Z"}}